This is the latest recevied weather packets stored in our database for station/object AE5EW. If no packets are shown the sender has not sent any weather packets the latest 10 day(s).
| Time | Temp. | Humidity | Pressure | Rain* | Wind** | Luminosity | Snow |
|---|---|---|---|---|---|---|---|
| 1787853457 | 26.67° C | 88% | 1017.8 hPa | 0 mm | - | - | - |
| 1787853156 | 26.67° C | 87% | 1017.7 hPa | 0 mm | - | - | - |
| 1787852851 | 27.22° C | 86% | 1017.8 hPa | 0 mm | - | - | - |
| 1787852551 | 27.22° C | 87% | 1017.5 hPa | 0 mm | - | - | - |
| 1787852249 | 27.78° C | 86% | 1017.8 hPa | 0 mm | - | - | - |
| 1787851944 | 27.78° C | 86% | 1017.7 hPa | 0 mm | - | - | - |
| 1787851644 | 27.78° C | 86% | 1017.6 hPa | 0 mm | - | - | - |
| 1787851339 | 28.33° C | 84% | 1017.5 hPa | 0 mm | - | - | - |
| 1787851034 | 28.33° C | 83% | 1017.6 hPa | 0 mm | - | - | - |
| 1787850730 | 28.33° C | 84% | 1017.6 hPa | 0 mm | - | - | - |
| 1787850430 | 28.33° C | 83% | 1017.5 hPa | 0 mm | - | - | - |
| 1787850126 | 28.89° C | 81% | 1017.6 hPa | 0 mm | - | - | - |
| 1787849825 | 28.89° C | 80% | 1017.7 hPa | 0 mm | - | - | - |
| 1787849520 | 29.44° C | 78% | 1017.5 hPa | 0 mm | - | - | - |
| 1787849219 | 29.44° C | 78% | 1017.5 hPa | 0 mm | - | - | - |
| 1787848918 | 29.44° C | 77% | 1017.7 hPa | 0 mm | - | - | - |
| 1787848613 | 29.44° C | 77% | 1017.1 hPa | 0 mm | - | - | - |
| 1787848308 | 29.44° C | 76% | 1017.3 hPa | 0 mm | - | - | - |
| 1787848008 | 29.44° C | 78% | 1017.3 hPa | 0 mm | - | - | - |
| 1787847708 | 29.44° C | 78% | 1017.3 hPa | 0 mm | - | - | - |
| 1787847403 | 29.44° C | 78% | 1017.3 hPa | 0 mm | - | - | - |
| 1787847098 | 28.89° C | 78% | 1016.9 hPa | 0 mm | - | - | - |
| 1787846794 | 28.33° C | 80% | 1017.1 hPa | 0 mm | - | - | - |
| 1787846489 | 28.33° C | 81% | 1017.1 hPa | 0 mm | - | - | - |
| 1787846185 | 28.33° C | 81% | 1017.1 hPa | 0 mm | - | - | - |
* Rain latest hour (hover to see other rain measurements)
** Current wind speed in m/s (hover to see current wind gust speed)